weather.gov     
National Weather Service

Regional Weather Roundup
NWS Homepage
This page is being discontinued on March 12, 2014.
The same data is available at this site. Please update your bookmarks.
Thank you, and we apologize for the inconvenience.
Please send an email to SR-SRH.Webmaster@noaa.gov with any concerns.


Current Version
Previous Version:    01  02  03  04  05  06  07  08  09  10  11  12  13  14  15  16  17  18  19  20  21  22  23  24  25  26  
[Printable]
853
ASUS46 KSEW 231010
RWRWA

WASHINGTON REGIONAL WEATHER ROUNDUP
NATIONAL WEATHER SERVICE SEATTLE WA
300 AM PDT WED APR 23 2014

NOTE:"FAIR" INDICATES FEW OR NO CLOUDS BELOW 12,000 FEET WITH NO
SIGNIFICANT WEATHER AND/OR OBSTRUCTIONS TO VISIBILITY.

WAZ505-507>509-231100-
SEATTLE, TACOMA, EVERETT, AND VICINITY

CITY           SKY/WX    TMP DP  RH WIND       PRES   REMARKS
EVERETT        CLOUDY    44  41  89 S12       29.86S
BOEING FIELD   FAIR      46  40  79 SE9       29.89S
RENTON         CLOUDY    45  42  89 E5        29.89S
SEATAC AIRPORT MOCLDY    44  40  85 S13       29.88F
JBLM-MCCHORD   LGT RAIN  43  43  99 S10       29.90S
PUYALLUP         N/A     41  41 100 S5        29.90S
JBLM-FT LEWIS  DRIZZLE   43  43  99 SE8       29.89F
TACOMA NARROWS CLOUDY    43  40  89 MISG      29.89S
$$

WAZ001-503-506-510-514-515-231100-
NORTH INTERIOR

CITY           SKY/WX    TMP DP  RH WIND       PRES   REMARKS
BELLINGHAM     CLOUDY    46  39  76 SE12      29.85S
FRIDAY HARBOR  CLOUDY    44  41  89 SE7       29.85S
EASTSOUND      MOCLDY    46  41  81 S5        29.83S
PORT ANGELES   MOCLDY    41  39  93 CALM      29.83S
NAS WHIDBEY    CLOUDY    48  40  73 SE15      29.85F
BURLINGTON     CLOUDY    45  41  87 SE5       29.87F
$$

WAZ020-022-039-040-504-511-512-231100-
SOUTHWEST INTERIOR

CITY           SKY/WX    TMP DP  RH WIND       PRES   REMARKS
SHELTON        LGT RAIN  43  41  93 W3        29.86S
OLYMPIA        CLOUDY    43  41  93 SW5       29.89F
CHEHALIS       CLOUDY    45  43  93 S5        29.92S
KELSO          CLOUDY    46  43  87 S7        29.97S
VANCOUVER      CLOUDY    47  42  83 S6        29.96S
SCAPPOOSE, OR  CLOUDY    46  43  89 S5        29.94S
PORTLAND, OR   CLOUDY    46  42  86 S12G24    29.96F
$$

WAZ021-516-517-231100-
WASHINGTON COAST

CITY           SKY/WX    TMP DP  RH WIND       PRES   REMARKS
FORKS          LGT RAIN  44  42  93 CALM      29.82F
HOQUIAM        MOCLDY    48  44  86 S10       29.87S
ASTORIA, OR    CLOUDY    48  43  82 SW9       29.90R
$$

WAZ019-023-024-040-518-519-231100-
CASCADE MOUNTAINS AND COLUMBIA GORGE

CITY           SKY/WX    TMP DP  RH WIND       PRES   REMARKS
STAMPEDE PASS  NOT AVBL
TROUTDALE, OR  LGT RAIN  47  41  80 S10       29.96S
THE DALLES, OR CLOUDY    43  39  86 CALM      29.94S
$$

WAZ026-027-041>044-520-521-231100-
EAST SLOPES

CITY           SKY/WX    TMP DP  RH WIND       PRES   REMARKS
OMAK           FAIR      35  26  69 SW3       29.81S
WENATCHEE      FAIR      43  29  57 NW7       29.83R
ELLENSBURG     CLOUDY    35  30  82 NW5       29.84S
YAKIMA         FAIR      40  33  76 W6        29.85S
$$

WAZ028-034-035-231100-
COLUMBIA BASIN

CITY           SKY/WX    TMP DP  RH WIND       PRES   REMARKS
EPHRATA        FAIR      40  33  76 S10       29.82S
MOSES LAKE     CLOUDY    42  34  73 S7        29.84F
HANFORD        NOT AVBL
PASCO          CLOUDY    47  36  65 S7        29.91S
HERMISTON, OR  CLOUDY    42  37  82 S3        29.91F
$$

WAZ036>038-231100-
NORTHEAST WASHINGTON

CITY           SKY/WX    TMP DP  RH WIND       PRES   REMARKS
SPOKANE GEIGER FAIR      35  28  75 S13       29.83R WCI  26
SPOKANE FELTS  FAIR      37  29  72 CALM      29.85S
FAIRCHILD AFB  FAIR      32  28  85 S9        29.82S
COEURDALENE,ID FAIR      36  28  75 CALM      29.85R
DEER PARK      FAIR      31  26  82 S9        29.82R
$$

WAZ029>033-231100-
SOUTHEAST WASHINGTON

CITY           SKY/WX    TMP DP  RH WIND       PRES   REMARKS
PULLMAN        FAIR      36  30  79 SW9       29.89S
LEWISTON, ID   FAIR      43  27  53 S7        29.90S
WALLA WALLA    CLOUDY    46  34  62 S8        29.92S
PENDLETON, OR  CLOUDY    41  33  73 S8        29.90F
$$




U.S. Dept. of Commerce
NOAA National Weather Service
1325 East West Highway
Silver Spring, MD 20910
E-mail: w-nws.webmaster@noaa.gov
Page last modified: May 16, 2007
NATIONAL WEATHER SERVICE: for Safety, for Work, for Fun - FOR LIFE